Buena Park, CA

5:29 PM PDT on August 27, 2016 (GMT -0700)
Fullerton Municipal

Weather History for KFUL - September, 2013

Change the Weather History Date:

Wednesday, September 18, 2013

  Actual Average Record
Temperature  
Mean Temperature 72 °F 73 °F  
Max Temperature 78 °F 84 °F 92 °F (2006)
Min Temperature 65 °F 63 °F 55 °F (2010)
Degree Days  
Heating Degree Days 0 0  
Month to date heating degree days 0 0  
Since 1 July heating degree days 22 0  
Cooling Degree Days 7 8  
Month to date cooling degree days 272 170  
Year to date cooling degree days 1641 1033  
Growing Degree Days 20 (Base 50)    
Moisture  
Dew Point 58 °F    
Average Humidity 66    
Maximum Humidity 84    
Minimum Humidity 47    
Precipitation  
Precipitation 0.00 in 0.01 in 0.72 in (1965)
Month to date precipitation 0.00 0.09  
Year to date precipitation 2.53 9.83  
Since 1 July precipitation T  
Snow  
Snow 0.00 in - - ()
Month to date snowfall 0.0  
Year to date snowfall 0.0  
Snow Depth 0.00 in    
Sea Level Pressure  
Sea Level Pressure 29.77 in    
Wind  
Wind Speed 5 mph (South)    
Max Wind Speed 10 mph    
Max Gust Speed 24 mph    
Visibility 10 miles    
Events      
T = Trace of Precipitation, MM = Missing Value Source: NWS Daily Summary

Daily Weather History Graph

Daily Weather History Graph

Search for Another Location

Airport or City:

Trip Planner

Search our weather history database for the weather conditions in past years. The results will help you decide how hot, cold, wet, or windy it might be!

Date:

Astronomy

Sep. 18, 2013 Rise Set
Actual Time 6:37 AM PDT 6:53 PM PDT
Civil Twilight 6:12 AM PDT 7:18 PM PDT
Nautical Twilight 5:43 AM PDT 7:47 PM PDT
Astronomical Twilight 5:13 AM PDT 8:17 PM PDT
Moon 6:20 PM PDT (9/18) 5:45 AM PDT (9/18)
Length of Visible Light 13h 06m
Length of Day
12h 16m
Waxing Gibbous, 99% of the Moon is Illuminated
Sep 18
Waxing Gibbous
Sep 19
Full
Sep 26
Last Quarter
Oct 4
New
Oct 11
First Quarter

Hourly Weather History & Observations

Time (PDT) Temp. Dew Point Humidity Pressure Visibility Wind Dir Wind Speed Gust Speed Precip Events Conditions
12:26 AM 64.4 °F 60.8 °F 88% 29.78 in 10.0 mi Calm Calm - N/A   Overcast
12:53 AM 64.9 °F 59.0 °F 81% 29.77 in 10.0 mi SE 3.5 mph - N/A   Overcast
1:53 AM 66.0 °F 59.0 °F 78% 29.76 in 10.0 mi East 4.6 mph - N/A   Overcast
2:53 AM 64.9 °F 59.0 °F 81% 29.75 in 10.0 mi Calm Calm - N/A   Overcast
3:53 AM 64.9 °F 59.0 °F 81% 29.75 in 10.0 mi SSW 5.8 mph - N/A   Overcast
4:53 AM 64.9 °F 57.9 °F 78% 29.75 in 10.0 mi Variable 3.5 mph - N/A   Overcast
5:50 AM 66.2 °F 57.2 °F 73% 29.77 in 10.0 mi Calm Calm - N/A   Overcast
5:53 AM 66.0 °F 57.9 °F 75% 29.77 in 10.0 mi Calm Calm - N/A   Overcast
6:53 AM 64.9 °F 57.0 °F 75% 29.78 in 10.0 mi Variable 4.6 mph - N/A   Overcast
7:53 AM 66.0 °F 57.0 °F 73% 29.79 in 10.0 mi SE 5.8 mph - N/A   Overcast
8:53 AM 66.9 °F 57.0 °F 70% 29.81 in 9.0 mi SE 3.5 mph - N/A   Overcast
9:53 AM 70.0 °F 57.0 °F 63% 29.80 in 10.0 mi ESE 3.5 mph - N/A   Scattered Clouds
10:53 AM 73.0 °F 57.0 °F 57% 29.80 in 10.0 mi Calm Calm - N/A   Clear
11:53 AM 75.0 °F 57.0 °F 53% 29.78 in 10.0 mi SSW 6.9 mph - N/A   Clear
12:53 PM 75.9 °F 57.0 °F 52% 29.79 in 10.0 mi SW 9.2 mph - N/A   Clear
1:53 PM 75.9 °F 57.0 °F 52% 29.77 in 10.0 mi Variable 5.8 mph - N/A   Clear
2:53 PM 77.0 °F 55.9 °F 48% 29.75 in 10.0 mi SSW 8.1 mph - N/A   Clear
3:53 PM 77.0 °F 57.0 °F 50% 29.74 in 10.0 mi SW 5.8 mph - N/A   Clear
4:53 PM 75.9 °F 57.0 °F 52% 29.74 in 10.0 mi SW 6.9 mph - N/A   Clear
5:53 PM 73.0 °F 59.0 °F 61% 29.74 in 10.0 mi SW 6.9 mph - N/A   Clear
6:53 PM 70.0 °F 59.0 °F 68% 29.75 in 10.0 mi SSW 8.1 mph - N/A   Clear
7:53 PM 68.0 °F 59.0 °F 73% 29.76 in 10.0 mi South 4.6 mph - N/A   Clear
8:53 PM 68.0 °F 60.1 °F 76% 29.77 in 10.0 mi Calm Calm - N/A   Clear
9:53 PM 68.0 °F 60.1 °F 76% 29.78 in 10.0 mi Calm Calm - N/A   Clear
10:53 PM 66.9 °F 60.1 °F 79% 29.78 in 10.0 mi SSE 3.5 mph - N/A   Clear
11:53 PM 66.9 °F 59.0 °F 76% 29.77 in 10.0 mi Calm Calm - N/A   Clear